When you browse on this site, cookies collect data to enhance your experience and personalize the content and advertising you see.
Visit our Privacy Policy to learn more. By continuing to use the site, you agree to this use of cookies and data.
  • In Schweiz
  • Länderverzeichnis
  • Für 7 Tage
  • Wassertemperatur
  • Satellitenkarten
  • Wetterkarte
  • Widgets
  • user-avatar
    Anmelden

    Stündliche Wetter Luzern

    Heute, 26 Juni, Mittwoch

    Zeit Temperatur Niederschläge Wind Luftdruck Luftfeuchtigkeit
    00:00 +24°C° 0 mm 1 m/S 728 mmHg 69%
    01:00 +24°C° 0 mm 1 m/S 728 mmHg 68%
    02:00 +24°C° 0 mm 1 m/S 728 mmHg 69%
    03:00 +24°C° 0 mm 1 m/S 728 mmHg 70%
    04:00 +23°C° 0 mm 1 m/S 728 mmHg 71%
    05:00 +25°C° 0 mm 1 m/S 728 mmHg 69%
    06:00 +26°C° 0 mm 1 m/S 728 mmHg 68%
    07:00 +26°C° 0 mm 0 m/S 729 mmHg 67%
    08:00 +30°C° 0 mm 1 m/S 729 mmHg 61%
    09:00 +32°C° 0 mm 1 m/S 729 mmHg 55%
    10:00 +34°C° 0 mm 1 m/S 729 mmHg 50%
    11:00 +35°C° 0 mm 1 m/S 729 mmHg 46%
    12:00 +36°C° 0 mm 1 m/S 729 mmHg 42%
    13:00 +37°C° 0 mm 1 m/S 729 mmHg 38%
    14:00 +37°C° 0 mm 1 m/S 729 mmHg 38%
    15:00 +37°C° 0 mm 1 m/S 729 mmHg 38%
    16:00 +37°C° 0 mm 1 m/S 729 mmHg 37%
    17:00 +35°C° 0 mm 1 m/S 729 mmHg 47%
    18:00 +34°C° 0 mm 1 m/S 729 mmHg 56%
    19:00 +30°C° 0 mm 0 m/S 728 mmHg 65%
    20:00 +30°C° 0 mm 1 m/S 729 mmHg 66%
    21:00 +28°C° 0 mm 1 m/S 729 mmHg 67%
    22:00 +26°C° 0 mm 1 m/S 729 mmHg 68%
    23:00 +26°C° 0 mm 1 m/S 729 mmHg 66%

    Morgen, 27 Juni, Donnerstag

    Zeit Temperatur Niederschläge Wind Luftdruck Luftfeuchtigkeit
    00:00 +25°C° 0 mm 1 m/S 729 mmHg 64%
    01:00 +25°C° 0 mm 1 m/S 728 mmHg 62%
    02:00 +25°C° 0 mm 1 m/S 728 mmHg 62%
    03:00 +24°C° 0 mm 1 m/S 728 mmHg 62%
    04:00 +24°C° 0 mm 1 m/S 728 mmHg 62%
    05:00 +25°C° 0 mm 1 m/S 728 mmHg 62%
    06:00 +27°C° 0 mm 1 m/S 728 mmHg 62%
    07:00 +26°C° 0 mm 0 m/S 728 mmHg 63%
    08:00 +30°C° 0 mm 1 m/S 728 mmHg 57%
    09:00 +32°C° 0 mm 1 m/S 729 mmHg 52%
    10:00 +34°C° 0 mm 1 m/S 729 mmHg 46%
    11:00 +35°C° 0 mm 1 m/S 728 mmHg 44%
    12:00 +37°C° 0 mm 2 m/S 728 mmHg 41%
    13:00 +38°C° 0 mm 2 m/S 728 mmHg 39%
    14:00 +38°C° 0 mm 2 m/S 728 mmHg 39%
    15:00 +37°C° 0 mm 2 m/S 728 mmHg 38%
    16:00 +37°C° 0 mm 2 m/S 728 mmHg 38%
    17:00 +36°C° 0 mm 2 m/S 727 mmHg 50%
    18:00 +33°C° 0 mm 1 m/S 727 mmHg 62%
    19:00 +31°C° 0 mm 1 m/S 727 mmHg 73%
    20:00 +29°C° 0.3 mm 1 m/S 727 mmHg 79%
    21:00 +27°C° 0.3 mm 1 m/S 727 mmHg 85%
    22:00 +25°C° 0.3 mm 1 m/S 728 mmHg 91%
    23:00 +25°C° 0.1 mm 1 m/S 727 mmHg 91%

    übermorgen, 28 Juni, Freitag

    Zeit Temperatur Niederschläge Wind Luftdruck Luftfeuchtigkeit
    00:00 +24°C° 0.1 mm 1 m/S 727 mmHg 91%
    01:00 +23°C° 0.1 mm 1 m/S 727 mmHg 91%
    02:00 +23°C° 0 mm 1 m/S 727 mmHg 90%
    03:00 +20°C° 0 mm 0 m/S 726 mmHg 88%
    04:00 +20°C° 0 mm 0 m/S 726 mmHg 87%
    05:00 +20°C° 0 mm 0 m/S 726 mmHg 85%
    06:00 +21°C° 0 mm 0 m/S 726 mmHg 83%
    07:00 +24°C° 0 mm 1 m/S 726 mmHg 81%
    08:00 +25°C° 0 mm 1 m/S 726 mmHg 75%
    09:00 +27°C° 0 mm 1 m/S 726 mmHg 70%
    10:00 +28°C° 0 mm 2 m/S 726 mmHg 64%
    11:00 +29°C° 0 mm 2 m/S 725 mmHg 59%
    12:00 +30°C° 0 mm 2 m/S 725 mmHg 54%
    13:00 +31°C° 0 mm 3 m/S 725 mmHg 50%
    14:00 +31°C° 0 mm 3 m/S 725 mmHg 49%
    15:00 +31°C° 0 mm 3 m/S 725 mmHg 48%
    16:00 +31°C° 0 mm 3 m/S 725 mmHg 47%
    17:00 +30°C° 0 mm 2 m/S 724 mmHg 54%
    18:00 +28°C° 0 mm 2 m/S 724 mmHg 61%
    19:00 +26°C° 0 mm 1 m/S 724 mmHg 69%
    20:00 +24°C° 0 mm 1 m/S 724 mmHg 75%
    21:00 +22°C° 0 mm 1 m/S 724 mmHg 80%
    22:00 +21°C° 0 mm 1 m/S 724 mmHg 86%
    23:00 +20°C° 0 mm 1 m/S 724 mmHg 86%

    29 Juni, Samstag

    Zeit Temperatur Niederschläge Wind Luftdruck Luftfeuchtigkeit
    00:00 +20°C° 0 mm 1 m/S 724 mmHg 86%
    01:00 +17°C° 0 mm 0 m/S 724 mmHg 86%
    02:00 +17°C° 0 mm 0 m/S 724 mmHg 86%
    03:00 +17°C° 0 mm 0 m/S 724 mmHg 85%
    04:00 +18°C° 0 mm 1 m/S 724 mmHg 84%
    05:00 +20°C° 0 mm 1 m/S 724 mmHg 82%
    06:00 +21°C° 0 mm 1 m/S 724 mmHg 79%
    07:00 +23°C° 0 mm 1 m/S 724 mmHg 76%
    08:00 +25°C° 0 mm 1 m/S 724 mmHg 69%
    09:00 +27°C° 0 mm 1 m/S 724 mmHg 62%
    10:00 +29°C° 0 mm 1 m/S 724 mmHg 54%
    11:00 +30°C° 0 mm 1 m/S 724 mmHg 51%
    12:00 +31°C° 0 mm 2 m/S 724 mmHg 48%
    13:00 +32°C° 0 mm 2 m/S 724 mmHg 45%
    14:00 +34°C° 0 mm 2 m/S 724 mmHg 44%
    15:00 +33°C° 0 mm 1 m/S 724 mmHg 43%
    16:00 +33°C° 0 mm 1 m/S 724 mmHg 43%
    17:00 +32°C° 0 mm 1 m/S 724 mmHg 51%
    18:00 +30°C° 0 mm 1 m/S 724 mmHg 59%
    19:00 +27°C° 0 mm 0 m/S 724 mmHg 68%
    20:00 +27°C° 0 mm 1 m/S 724 mmHg 72%
    21:00 +25°C° 0 mm 1 m/S 724 mmHg 75%
    22:00 +24°C° 0 mm 1 m/S 724 mmHg 79%
    23:00 +23°C° 0 mm 1 m/S 724 mmHg 79%

    30 Juni, Sonntag

    Zeit Temperatur Niederschläge Wind Luftdruck Luftfeuchtigkeit
    00:00 +23°C° 0 mm 1 m/S 724 mmHg 78%
    01:00 +23°C° 0 mm 1 m/S 724 mmHg 78%
    02:00 +22°C° 0 mm 1 m/S 724 mmHg 77%
    03:00 +22°C° 0 mm 1 m/S 724 mmHg 76%
    04:00 +22°C° 0 mm 1 m/S 724 mmHg 75%
    05:00 +23°C° 0 mm 1 m/S 724 mmHg 73%
    06:00 +25°C° 0 mm 1 m/S 725 mmHg 70%
    07:00 +26°C° 0 mm 1 m/S 725 mmHg 67%
    08:00 +28°C° 0 mm 1 m/S 725 mmHg 58%
    09:00 +30°C° 0 mm 1 m/S 725 mmHg 50%
    10:00 +32°C° 0 mm 1 m/S 726 mmHg 42%
    11:00 +34°C° 0 mm 2 m/S 725 mmHg 38%
    12:00 +35°C° 0 mm 2 m/S 725 mmHg 34%
    13:00 +36°C° 0 mm 2 m/S 725 mmHg 31%
    14:00 +36°C° 0 mm 2 m/S 725 mmHg 31%
    15:00 +36°C° 0 mm 2 m/S 725 mmHg 31%
    16:00 +37°C° 0 mm 2 m/S 725 mmHg 31%
    17:00 +34°C° 0 mm 1 m/S 725 mmHg 42%
    18:00 +32°C° 0 mm 1 m/S 725 mmHg 54%
    19:00 +30°C° 0 mm 1 m/S 725 mmHg 65%
    20:00 +28°C° 0 mm 1 m/S 725 mmHg 67%
    21:00 +27°C° 0 mm 1 m/S 725 mmHg 68%
    22:00 +25°C° 0 mm 1 m/S 725 mmHg 70%
    23:00 +24°C° 0 mm 2 m/S 725 mmHg 67%

    1 Juli, Montag

    Zeit Temperatur Niederschläge Wind Luftdruck Luftfeuchtigkeit
    00:00 +24°C° 0 mm 2 m/S 725 mmHg 64%
    01:00 +24°C° 0 mm 2 m/S 725 mmHg 60%
    02:00 +23°C° 0 mm 1 m/S 724 mmHg 58%
    03:00 +23°C° 0 mm 1 m/S 724 mmHg 55%
    04:00 +23°C° 0 mm 1 m/S 724 mmHg 52%
    05:00 +24°C° 0 mm 1 m/S 724 mmHg 53%
    06:00 +25°C° 0 mm 1 m/S 724 mmHg 54%
    07:00 +26°C° 0 mm 1 m/S 725 mmHg 56%
    08:00 +27°C° 0.6 mm 1 m/S 725 mmHg 58%
    09:00 +28°C° 0.6 mm 1 m/S 725 mmHg 60%
    10:00 +27°C° 0.6 mm 0 m/S 725 mmHg 62%
    11:00 +31°C° 0 mm 1 m/S 725 mmHg 56%
    12:00 +34°C° 0 mm 2 m/S 724 mmHg 49%
    13:00 +35°C° 0 mm 2 m/S 724 mmHg 43%
    14:00 +35°C° 0.6 mm 2 m/S 724 mmHg 47%
    15:00 +34°C° 0.6 mm 2 m/S 724 mmHg 51%
    16:00 +34°C° 0.6 mm 2 m/S 723 mmHg 55%
    17:00 +30°C° 1.9 mm 2 m/S 723 mmHg 65%
    18:00 +28°C° 1.9 mm 2 m/S 723 mmHg 74%
    19:00 +26°C° 1.9 mm 2 m/S 723 mmHg 84%
    20:00 +25°C° 1.9 mm 2 m/S 724 mmHg 86%
    21:00 +23°C° 1.9 mm 2 m/S 724 mmHg 88%
    22:00 +22°C° 1.9 mm 1 m/S 724 mmHg 91%
    23:00 +22°C° 0.8 mm 1 m/S 724 mmHg 90%
    Mehr zeigen